Dewpoint
58 58 57 55 55 52 51 49 44 38 35 33 31 30 29 29 31 31 33 33 34 35 34 34 33 31 25 23 23 22 21 20 17 16 16 16 20 23 23 25 25 21 20
52 51 47 46 46 46 45 41 39 34 33 32 31 30 31 32 34 34 35 36 35 35 34 32 29 26 23 22 22 21 21 20 18 14 16 15 15 16 20 20 18 16 15
40 40 39 38 37 37 37 36 35 35 36 37 37 37 37 37 37 37 36 35 34 33 33 31 27 25 25 24 22 20 20 18 19 17 15 17 17 17 16 16 15 16 14
39 38 38 38 38 38 38 38 38 38 38 38 38 37 37 36 35 35 34 33 32 31 30 29 28 28 27 23 22 21 19 19 19 18 17 16 16 17 18 16 15 17 16
37 36 36 37 37 37 36 36 35 35 35 35 34 34 33 33 33 32 31 29 29 29 29 29 30 30 31 30 26 23 22 20 20 18 17 17 16 16 16 17 16 16 17
35 35 35 35 34 34 34 33 33 32 32 32 32 32 31 33 35 35 33 32 31 31 30 31 31 30 29 30 30 30 29 26 22 20 19 18 17 17 17 17 17 17 16
33 33 33 33 32 32 32 32 32 32 32 31 31 31 30 32 35 35 33 32 31 31 30 28 26 25 27 25 27 28 27 27 28 25 25 25 24 24 23 22 20 19 18
30 31 32 32 31 32 31 31 31 31 30 29 29 29 29 32 32 30 28 26 26 26 26 26 26 26 26 27 26 27 27 26 26 24 24 23 23 23 24 24 24 25 24
26 26 28 29 28 28 28 28 29 29 29 28 27 27 27 24 26 25 24 23 22 22 23 24 25 23 24 24 21 22 24 25 26 27 28 29 30 31 30 29 27 26 23
22 23 25 26 25 25 25 26 26 26 26 24 22 22 20 18 22 23 20 19 18 18 19 19 20 17 20 21 18 19 20 20 21 23 25 26 26 27 29 28 27 25 24
19 19 20 20 21 20 20 21 20 19 19 19 18 18 17 17 17 20 20 15 15 16 16 15 14 17 18 18 18 16 15 16 16 16 17 18 21 23 24 24 27 26 23
16 17 18 18 18 18 18 17 16 16 15 14 13 13 14 15 17 18 19 18 17 14 13 11 10 15 14 14 12 14 14 12 10 8 8 8 9 11 14 14 15 18 27
13 13 13 15 16 17 16 14 13 13 12 11 10 10 11 14 14 16 17 16 14 12 11 8 11 11 10 8 9 10 8 6 4 3 3 5 9 6 6 7 8 12 15
10 10 10 10 11 13 13 13 13 12 11 11 9 9 10 12 11 12 13 12 12 11 8 4 5 5 5 5 3 4 3 3 3 2 2 3 2 3 3 3 5 9 12
7 7 7 7 7 7 8 11 10 11 12 11 10 9 9 11 11 13 13 10 8 9 1 -1 -2 -2 -3 -2 -2 -2 -1 -1 -1 -1 -1 -1 -1 -1 -1 1 4 8 6
5 4 5 4 4 4 3 2 9 10 11 13 12 11 11 13 13 12 13 11 9 8 -8 -6 -6 -6 -6 -5 -5 -5 -5 -4 -4 -4 -4 -4 -4 -4 -3 0 2 7 5
3 3 2 2 2 1 0 -1 -3 -0 3 7 10 9 12 13 11 10 11 8 6 3 -8 -8 -8 -7 -7 -7 -7 -7 -7 -6 -5 -5 -5 -5 -5 -5 -3 -2 4 3 3
-1 1 0 -1 -1 -1 -2 -4 -6 -7 -7 -5 1 5 8 12 10 8 9 2 -7 -5 -8 -9 -9 -8 -8 -8 -8 -8 -7 -7 -7 -6 -6 -6 -6 -4 -3 -2 3 2 1
-1 -2 -7 -9 -9 -8 -8 -8 -10 -10 -9 -7 -6 -4 -1 9 7 3 4 -8 -9 -9 -9 -9 -9 -8 -8 -8 -8 -8 -8 -8 -7 -6 -6 -6 -5 -4 -2 -0 -0 1 -0
-10 -2 -7 -10 -9 -8 -6 -7 -7 -7 -8 -8 -9 -9 -5 0 -8 -10 -9 -9 -10 -10 -10 -10 -9 -9 -9 -9 -9 -9 -9 -8 -7 -6 -6 -5 -4 -3 -2 -2 -4 -5 -6
-10 -7 -7 -7 -7 -10 -15 -11 -9 -9 -10 -9 -9 -7 7 -4 -11 -11 -11 -11 -11 -10 -10 -10 -9 -9 -9 -9 -9 -9 -8 -8 -6 -5 -5 -4 -4 -3 -4 -4 -6 -7 -8
-10 -13 -14 -18 -15 -10 -10 -12 -13 -14 -13 -13 -11 -9 4 -10 -12 -13 -13 -13 -12 -11 -9 -9 -9 -9 -9 -10 -9 -9 -8 -7 -6 -4 -5 -5 -4 -5 -6 -7 -8 -8 -9
-14 -14 -14 -16 -20 -17 -17 -18 -17 -16 -14 -13 -13 -12 -12 -12 -14 -14 -14 -14 -13 -12 -11 -10 -10 -11 -10 -9 -8 -7 -7 -6 -3 -2 -5 -5 -6 -8 -8 -9 -10 -12 -15
-22 -22 -22 -19 -19 -18 -18 -15 -14 -14 -14 -14 -14 -14 -14 -14 -14 -14 -13 -14 -14 -13 -12 -11 -11 -12 -10 -10 -9 -7 -5 -2 1 -3 -5 -7 -8 -9 -9 -11 -13 -15 -15
-25 -23 -22 -18 -18 -16 -15 -15 -14 -14 -15 -15 -15 -15 -14 -13 -13 -13 -12 -13 -14 -14 -14 -13 -13 -12 -12 -12 -11 -9 -5 2 -3 -3 -8 -8 -9 -10 -14 -15 -17 -18 -17
-23 -22 -19 -18 -17 -16 -18 -16 -14 -13 -13 -13 -12 -12 -13 -13 -12 -11 -11 -12 -14 -15 -16 -15 -14 -13 -13 -10 -9 -3 2 9 -2 -3 -7 -8 -12 -14 -16 -19 -18 -20 -19
Lifted_Index
0 0 0 0 0 1 1 1 2 3 4 4 3 2 2 2 4 7 10 13 13 13 12 11 11 11 12 14 16 16 16 16 15 15 15 16 16 17 18 19 19 18 18
0 0 0 0 1 1 1 1 2 3 4 4 4 4 5 6 7 9 11 12 12 12 12 11 12 12 14 15 16 16 16 16 15 14 14 15 15 16 17 17 17 17 17
1 1 1 1 1 2 3 4 5 5 6 7 8 9 11 12 12 12 12 12 12 12 12 12 13 15 16 16 16 15 15 16 15 13 13 14 14 15 15 15 15 15 16
2 2 2 2 3 5 7 8 9 10 10 11 12 14 15 15 14 13 13 13 13 14 14 14 15 16 16 16 15 14 14 14 13 12 12 12 13 13 12 12 13 14 14
3 3 4 5 7 8 10 11 12 13 14 14 15 15 15 14 14 13 13 13 14 15 15 15 15 16 16 15 14 14 14 13 12 11 11 12 12 12 12 13 13 13 14
5 6 7 8 10 11 12 12 13 14 15 15 15 14 14 14 14 14 13 13 13 13 13 14 14 14 14 14 14 14 14 13 13 13 13 13 13 13 14 14 14 14 14
9 9 10 10 11 12 13 13 14 14 15 14 14 14 13 13 14 14 13 13 13 13 13 13 13 14 14 15 15 15 15 15 15 15 15 15 15 16 16 16 15 15 15
10 11 12 12 12 12 13 13 13 13 13 13 13 13 13 14 14 14 14 14 14 15 15 16 16 16 16 17 16 16 16 17 17 17 17 17 17 17 17 17 16 16 16
11 12 12 12 12 13 13 13 14 14 13 13 14 14 15 16 17 17 17 16 16 16 17 18 19 19 20 20 19 18 18 18 19 19 19 18 18 18 18 17 17 17 16
14 14 14 14 14 14 15 15 16 16 16 16 17 18 18 19 20 20 20 19 18 19 20 21 21 22 22 22 21 20 20 21 21 21 21 20 20 19 19 18 18 18 17
17 16 16 16 17 17 17 18 18 18 18 18 19 20 21 22 23 23 23 22 21 21 22 22 23 23 23 23 23 23 22 22 22 22 21 21 21 21 21 20 20 19 19
18 18 18 18 19 19 19 19 19 19 19 19 19 20 22 23 24 24 24 24 24 23 23 23 24 24 23 23 23 23 23 23 22 22 22 22 23 24 24 23 22 21 21
18 18 19 19 20 20 20 20 20 20 20 20 20 21 22 23 24 24 24 24 24 23 23 23 23 23 23 23 23 23 24 24 23 23 23 24 25 26 26 26 25 24 24
18 19 20 20 21 21 22 21 21 21 22 22 22 22 22 23 24 24 24 24 23 23 23 23 22 22 22 23 24 25 26 26 26 26 26 27 27 27 27 27 27 26 26
20 20 21 22 22 22 23 23 24 24 24 24 24 24 23 24 24 24 24 23 23 23 22 22 21 21 22 22 24 25 26 27 27 27 28 28 28 28 28 28 27 26 25
21 22 22 23 23 24 24 24 25 25 25 25 25 24 24 24 24 24 23 23 23 23 22 21 20 21 21 22 23 24 25 26 27 28 28 28 27 27 27 26 26 25 24
22 23 23 23 23 23 23 23 24 24 24 24 24 24 24 24 24 23 23 23 22 22 21 20 20 21 22 23 24 25 26 26 27 27 26 26 26 25 24 24 23 22 21
23 23 23 23 23 23 23 22 22 22 22 22 22 22 22 23 23 23 23 22 21 21 21 21 22 23 24 25 26 26 26 26 26 25 24 24 24 23 23 22 21 20 19
23 23 23 23 23 22 22 22 22 21 21 21 22 22 22 22 22 23 23 22 22 22 22 23 24 24 25 25 25 25 24 24 23 23 23 23 23 22 21 20 19 17 16
22 22 22 22 22 22 22 22 22 22 22 22 22 23 23 23 23 23 23 23 23 23 23 24 24 24 24 24 23 23 22 22 22 22 21 21 21 20 19 17 16 15 14
22 22 22 22 22 22 22 22 22 23 23 23 23 24 24 24 23 23 23 23 23 23 23 23 22 22 22 22 22 21 21 21 20 20 19 18 18 17 16 15 14 14 13
23 23 23 23 23 23 23 23 24 24 24 24 24 24 24 24 23 23 23 22 22 22 22 22 21 21 21 21 21 20 20 19 19 18 17 16 15 15 14 14 13 13 13
24 24 23 23 23 23 24 24 24 24 24 24 23 23 23 22 22 21 21 21 21 21 21 21 20 20 20 20 20 20 19 18 17 16 15 14 14 14 13 13 13 13 13
24 24 24 23 23 23 23 23 23 23 23 22 22 21 21 21 20 20 20 20 20 20 20 20 20 20 20 19 19 18 17 16 16 15 14 13 13 13 13 13 13 13 13
24 24 23 23 23 23 23 23 22 22 21 21 20 20 19 19 19 19 19 20 20 20 20 20 20 19 19 18 17 16 16 15 14 14 14 13 13 13 13 13 13 13 13
24 24 23 23 23 23 23 23 22 21 20 20 20 19 18 18 18 19 19 20 20 20 20 20 20 19 18 17 16 15 15 14 14 14 13 13 13 13 13 13 13 13 13